Wind_Gust
5 7 6 6 6 6 7 13 12 9 9 10 7 11 9 8 9 12 8 12 7 10 10 9 8 6 10 7 14 15 10 8 7 8 9 11 10 15 17 22 24 25 26 26 24 26 26 21 22 24 23 24 24 24 24 24 24 22 22 22 22 21 21 22 22 22 23 22 22 22 22 22 21 22 22 21 21 22 22 24 24 25 25 24 24 24 24 25 26 27 27 27 25 23 23 24 23
5 6 5 6 7 7 9 8 10 6 8 7 13 8 10 7 7 11 9 8 7 7 7 10 14 14 16 20 19 14 17 12 7 8 10 11 15 15 19 23 23 25 25 26 24 24 25 26 21 22 24 26 25 24 24 24 24 24 23 22 21 22 22 22 23 23 22 22 22 22 23 23 21 21 22 21 18 19 18 22 24 25 25 23 24 24 25 25 26 26 26 26 24 23 23 23 23
6 5 6 6 6 9 11 9 12 6 10 13 11 16 9 10 12 7 11 11 11 13 8 12 9 9 6 15 10 12 10 6 10 10 13 16 22 18 20 22 23 23 24 25 24 23 23 23 19 22 26 25 25 26 25 24 23 23 23 21 21 21 21 22 22 23 22 21 22 22 22 22 22 22 21 20 18 15 17 20 23 24 24 24 24 24 24 24 24 24 24 24 23 23 22 21 21
5 6 7 7 8 8 7 8 8 12 9 8 11 12 11 9 10 9 8 12 15 13 11 9 12 9 11 18 11 6 11 9 7 12 19 25 19 21 23 21 21 23 22 24 23 23 21 24 19 23 25 26 25 24 24 24 24 22 22 21 22 21 21 21 21 22 22 21 21 22 22 22 21 21 21 21 17 13 16 19 20 22 23 23 23 24 23 23 24 23 24 22 21 21 21 20 20
5 5 6 7 9 7 8 7 8 8 16 14 8 8 11 13 8 7 9 12 17 12 10 7 11 12 11 12 9 8 10 8 9 11 14 16 13 20 22 22 22 23 23 22 22 22 23 25 21 22 24 25 24 24 24 24 23 22 22 20 21 21 20 20 21 21 21 21 21 21 22 22 22 22 21 20 19 15 14 15 16 18 19 20 20 18 19 20 21 22 21 19 19 19 18 18 18
6 6 6 7 6 9 14 11 9 14 9 11 9 9 7 7 7 8 15 13 12 8 10 6 8 10 10 9 11 8 8 11 8 11 14 14 19 20 23 22 23 23 22 22 21 21 26 22 21 21 22 25 24 25 24 23 23 21 21 21 21 21 20 20 21 21 22 21 20 21 21 21 21 22 21 20 20 18 17 17 17 17 19 21 20 21 21 21 20 19 18 18 18 17 17 15 16
5 8 12 9 10 10 9 7 8 10 12 13 12 13 7 7 9 10 14 14 8 9 8 9 15 15 13 7 7 7 8 11 9 8 13 16 19 20 21 20 21 22 22 22 23 23 26 21 20 21 23 25 26 25 24 24 23 22 22 21 20 21 21 19 20 21 21 20 19 19 20 20 21 21 21 20 19 20 20 19 19 19 17 18 20 22 21 21 20 18 18 17 17 16 17 16 15
6 8 7 7 9 8 7 5 10 10 9 13 9 15 14 9 6 11 13 6 9 9 11 10 8 13 7 8 9 10 8 7 9 10 13 19 18 20 19 19 20 21 22 21 19 19 23 21 21 22 24 24 25 25 24 24 23 22 21 20 20 20 20 19 18 19 19 20 20 19 20 20 20 20 20 20 20 19 19 19 18 17 17 18 19 20 20 20 19 19 18 16 16 16 17 18 18
8 10 7 9 8 8 7 8 10 9 14 12 18 18 18 17 13 13 14 8 7 6 11 10 9 8 9 7 7 10 8 8 7 12 16 18 20 21 21 20 22 22 20 20 19 19 22 17 18 20 23 23 24 25 23 23 23 22 21 21 19 17 18 18 19 18 17 17 17 18 18 20 21 19 19 19 19 18 18 17 16 17 16 17 19 20 20 19 19 19 18 16 16 17 18 18 19
9 9 7 9 8 11 7 8 9 9 11 8 15 18 16 13 12 14 14 8 6 12 8 7 9 11 13 8 7 8 9 6 10 15 16 18 18 19 18 19 20 21 19 19 20 22 21 19 14 16 19 21 22 22 22 21 21 20 20 19 17 17 18 17 16 15 15 17 16 14 14 17 18 17 16 18 19 18 17 16 15 16 17 17 18 19 18 19 19 19 17 16 16 17 18 19 19
9 10 7 10 7 7 11 8 12 13 11 10 17 18 16 14 14 11 9 9 6 10 11 8 16 17 12 8 8 9 7 7 11 15 17 18 18 20 20 18 19 19 20 20 21 22 22 22 20 16 17 20 20 20 20 20 20 19 18 17 16 18 18 16 15 15 16 17 16 14 13 14 15 16 16 18 18 17 16 15 14 15 16 18 18 18 18 19 19 17 16 15 15 17 18 17 19
10 7 9 7 8 7 6 10 12 13 14 10 12 7 7 8 8 7 9 12 12 15 11 10 16 19 14 11 9 6 7 8 10 13 16 17 19 19 19 18 17 18 19 21 22 21 22 22 23 22 19 18 19 19 19 19 20 19 19 18 16 16 16 15 14 15 15 17 16 14 13 13 15 16 17 16 16 15 15 15 14 15 15 17 18 16 17 18 17 16 14 14 15 16 17 18 18
9 6 10 9 7 9 8 9 9 10 13 9 11 11 7 8 7 7 11 10 11 13 9 9 20 10 12 10 7 6 11 12 10 12 16 19 17 18 17 18 20 19 19 20 21 22 21 21 23 24 22 21 18 18 19 19 20 19 19 17 15 16 17 17 15 15 14 16 16 15 13 11 12 17 16 15 14 14 14 14 15 14 14 15 15 16 16 16 15 15 13 13 15 15 17 17 18
9 10 11 10 8 6 9 8 7 10 8 8 8 15 11 6 8 10 18 14 9 6 8 12 17 10 10 11 7 12 16 15 11 13 15 15 16 16 16 18 17 19 19 20 21 22 22 21 23 22 24 24 24 20 17 18 18 18 17 15 15 16 16 16 15 14 14 15 17 16 12 12 15 15 16 15 13 13 13 14 14 15 14 14 14 15 16 15 14 14 14 14 16 16 17 18 18
7 7 8 8 8 6 8 11 7 8 7 6 10 14 12 8 7 5 11 18 11 6 11 8 9 10 11 14 11 20 17 18 15 15 14 15 15 16 15 16 17 17 19 20 20 21 22 21 22 22 21 22 23 23 22 22 18 17 15 15 16 16 16 15 15 15 15 15 16 16 15 17 17 16 16 14 14 13 13 13 14 15 14 14 13 14 15 15 14 14 15 16 18 17 17 18 18
10 9 8 8 9 9 9 11 7 8 10 6 8 12 7 11 9 6 9 10 16 6 8 13 8 9 8 12 10 16 16 19 17 16 16 16 15 14 16 15 16 18 19 19 19 18 20 20 22 21 21 20 19 18 20 20 20 20 17 16 16 16 17 16 15 15 17 18 19 18 18 21 19 20 17 17 13 13 11 12 14 14 14 14 13 13 14 14 14 15 16 17 17 17 18 18 18
7 8 9 8 12 11 10 12 11 8 10 8 8 15 12 9 8 9 9 11 20 8 7 7 8 10 6 7 10 17 21 19 18 18 17 17 16 16 16 15 18 17 15 19 18 19 19 19 19 18 17 18 17 16 16 18 20 20 18 18 18 19 17 18 15 17 18 18 18 15 14 17 18 19 19 17 14 15 10 11 13 15 14 14 14 13 12 13 14 16 16 16 18 18 17 17 16
8 11 10 11 8 13 11 13 15 8 9 12 11 10 9 5 6 10 11 16 15 10 7 9 6 9 9 9 10 20 23 21 20 20 19 18 17 17 17 18 19 18 16 17 16 16 18 17 17 17 19 19 17 15 15 16 19 19 19 21 21 20 18 18 21 20 16 20 15 17 15 14 16 16 17 12 14 16 14 11 12 14 14 14 12 11 11 12 13 15 17 17 17 17 17 20 17
9 9 11 16 13 12 9 9 9 7 10 11 11 8 6 8 10 10 9 8 9 9 8 8 7 8 12 14 16 21 22 21 20 19 21 20 19 19 18 18 18 19 18 17 16 16 17 15 16 17 18 19 19 17 17 17 18 18 19 19 18 15 17 19 18 19 17 18 18 16 13 13 15 16 15 13 13 10 15 12 12 13 13 14 13 12 11 12 13 14 15 16 15 14 17 15 16
8 10 13 18 10 10 10 7 9 12 10 15 15 9 11 9 7 6 8 11 7 10 12 8 8 11 12 12 16 19 21 19 19 19 20 18 18 18 17 17 17 18 18 18 18 15 16 14 15 15 17 18 17 16 15 16 17 17 18 18 18 17 18 16 16 15 15 16 15 13 13 14 14 14 12 14 13 16 16 12 12 13 14 13 13 13 13 13 15 15 15 16 12 11 14 14 14
10 10 16 11 8 12 9 11 14 12 7 9 8 11 11 9 8 8 13 12 7 9 13 10 15 14 17 15 17 19 20 19 19 18 18 17 16 17 17 18 18 18 17 14 14 14 14 15 15 17 17 16 16 16 16 17 17 18 18 18 18 16 16 17 15 13 14 15 15 13 14 14 13 14 15 14 14 15 14 15 15 16 15 16 10 16 16 13 10 16 17 14 14 15 15 13 12
14 13 8 9 8 8 11 11 6 6 5 5 6 14 9 12 7 11 17 7 10 12 12 17 13 13 22 23 21 19 21 21 21 20 19 19 19 18 15 14 13 13 14 16 13 13 14 17 16 15 17 16 17 18 19 18 19 19 20 19 18 17 16 16 17 14 14 15 15 13 13 13 14 15 14 13 14 14 15 15 14 14 15 15 15 17 14 11 12 14 15 15 13 13 13 12 11
16 7 9 11 10 14 6 5 6 7 8 8 12 8 8 8 9 6 10 7 6 8 10 15 13 12 14 16 20 20 22 24 24 24 21 21 20 17 17 15 18 16 16 13 14 14 15 17 17 16 17 18 19 19 19 19 19 18 18 19 19 18 16 16 16 16 15 14 14 15 14 15 14 14 15 13 13 14 14 14 13 12 13 15 13 13 13 12 13 13 13 14 13 14 14 12 12
10 12 6 9 10 16 7 14 7 10 5 12 6 6 9 5 8 7 8 7 10 14 10 10 10 15 16 19 19 21 22 24 24 20 19 18 17 16 14 14 16 12 15 13 14 15 16 18 18 18 18 18 17 19 19 20 19 19 19 19 19 19 18 17 16 15 15 14 14 15 13 15 15 15 15 15 13 12 13 12 12 10 10 12 12 12 14 13 11 12 12 14 15 15 15 13 12
15 15 10 11 8 10 11 12 12 9 12 13 7 10 7 10 7 6 9 9 12 7 11 11 14 15 16 17 18 18 19 17 17 16 15 15 13 13 12 12 14 16 17 16 17 18 19 21 20 20 17 17 17 18 19 18 19 19 20 19 19 16 17 17 16 15 15 15 15 16 14 16 15 15 15 15 13 12 11 12 13 10 9 12 12 12 12 12 11 12 13 14 14 14 14 13 13
14 15 6 7 10 8 8 12 13 8 10 8 8 11 7 8 8 7 9 11 7 11 14 14 14 14 16 18 19 19 18 18 16 17 17 14 14 13 13 14 15 18 19 17 21 18 20 20 21 21 20 20 19 20 20 18 19 19 20 18 18 18 17 16 16 15 14 16 16 15 17 16 16 16 15 14 14 13 12 11 12 12 9 9 12 13 11 11 12 12 13 14 16 15 15 14 13
12 13 15 16 12 8 7 9 9 5 9 8 9 10 7 9 9 10 7 7 12 13 14 14 15 16 16 15 18 18 18 19 18 16 15 13 15 16 14 14 17 18 19 20 23 19 17 19 21 20 21 18 18 21 20 18 18 19 20 18 18 19 17 16 17 15 15 16 16 17 18 16 17 16 16 15 15 14 14 13 13 13 11 10 10 13 11 10 10 11 13 14 15 15 14 14 13
9 10 6 11 10 8 12 10 16 7 12 10 13 6 6 8 6 7 8 10 12 17 15 14 14 14 16 16 15 15 16 15 16 16 18 17 18 19 18 21 20 19 22 25 25 20 17 20 20 20 22 21 19 21 19 19 20 19 18 18 18 17 16 16 17 17 16 15 16 17 17 17 16 16 16 16 15 15 15 14 13 14 13 10 10 12 12 11 10 10 9 10 11 12 13 12 11
7 11 9 8 7 14 8 13 8 7 8 8 11 5 7 6 8 6 7 12 12 14 16 15 16 16 16 16 17 16 16 16 16 18 18 19 18 19 20 20 21 20 20 19 21 20 20 21 19 20 20 21 22 21 20 19 19 19 20 18 17 16 17 17 17 18 19 16 16 17 17 17 15 17 17 15 15 14 14 14 14 14 12 10 10 11 12 12 12 11 10 11 12 13 13 12 11
9 7 6 8 7 10 5 5 5 7 6 9 10 12 8 9 12 12 7 16 14 13 14 17 17 17 16 17 18 18 13 14 16 15 17 17 17 18 19 18 18 18 18 18 17 20 18 17 17 17 21 22 21 20 20 21 18 19 18 19 17 17 18 18 17 18 20 19 17 16 16 16 16 17 17 16 15 14 15 15 15 15 14 10 9 11 12 12 13 12 13 13 11 14 15 14 14
16 7 7 7 8 11 6 5 5 9 5 8 6 11 10 9 15 17 11 14 18 18 16 18 18 17 17 17 18 18 15 16 15 11 11 11 11 12 14 15 17 17 16 16 18 18 16 16 15 17 18 19 20 19 20 20 16 17 18 19 18 19 18 19 18 18 20 20 17 15 18 17 17 18 17 16 15 15 15 15 15 16 15 13 10 11 12 12 13 14 15 15 14 13 14 14 14
7 18 14 7 10 8 13 6 7 9 8 6 6 6 9 13 17 18 9 7 10 13 16 17 18 18 18 18 19 19 17 13 12 11 9 10 9 10 10 13 15 15 16 17 16 16 16 15 16 16 16 15 18 19 18 19 18 16 17 15 15 17 19 18 19 18 19 18 17 15 17 17 17 19 18 17 17 16 17 16 16 15 15 14 11 10 11 13 12 12 12 14 17 14 14 13 13
9 12 6 11 8 9 7 7 5 6 7 8 7 10 9 10 20 18 15 7 8 11 12 13 15 16 18 17 16 17 16 17 13 14 10 7 7 8 7 8 12 13 13 12 15 15 15 15 16 16 16 15 13 13 15 14 15 15 17 17 17 17 18 17 17 17 18 19 18 16 16 18 18 19 19 18 16 17 16 15 15 14 14 13 11 11 12 13 13 12 11 10 12 16 15 14 13
12 7 9 7 13 10 10 9 6 8 6 13 9 9 12 12 18 19 18 13 10 15 12 13 13 14 15 14 15 16 17 18 20 20 17 11 10 10 9 8 7 7 7 8 12 13 14 14 14 13 12 11 12 10 11 12 15 15 16 17 16 18 18 16 15 17 17 17 16 16 17 18 19 21 19 18 17 17 16 15 13 13 13 12 12 12 12 11 15 15 14 11 12 16 16 16 14
13 12 9 9 7 7 7 11 7 5 9 10 13 17 14 15 15 19 18 17 9 10 12 10 12 14 14 14 14 15 18 20 17 19 15 12 11 11 11 10 9 8 8 8 8 10 11 13 13 12 11 13 16 15 11 13 11 14 14 13 15 14 14 13 11 15 17 17 16 13 15 17 18 18 18 17 17 16 16 15 12 12 13 13 13 13 13 12 13 14 14 15 12 12 14 14 16
14 14 12 10 14 12 12 8 6 6 9 11 13 13 15 18 20 20 19 19 19 16 14 11 10 12 14 13 14 14 16 19 16 16 14 12 12 12 14 13 13 12 11 12 14 12 12 12 9 10 12 15 17 15 14 14 13 11 13 16 16 16 16 18 14 13 15 18 16 13 15 17 18 19 19 18 17 17 17 16 13 14 13 14 15 14 14 16 17 16 15 17 16 14 13 15 16
12 10 11 11 9 7 8 9 8 6 15 15 15 18 19 19 20 19 18 18 26 24 22 20 17 14 12 13 16 16 15 15 11 14 16 14 14 15 15 15 17 17 16 17 17 17 18 18 17 17 16 16 17 17 16 14 13 16 15 17 19 18 18 16 17 19 17 13 11 15 17 16 18 18 18 17 17 16 14 12 13 14 14 15 14 14 14 15 18 19 17 15 17 16 15 15 16
15 12 10 10 7 13 7 8 9 6 8 10 11 22 20 18 19 20 19 25 26 23 22 22 20 19 18 18 16 14 10 7 11 15 15 14 16 15 15 17 18 21 17 18 17 17 17 17 15 17 14 13 17 17 14 12 10 14 15 16 16 17 19 21 17 12 14 14 15 13 14 16 17 16 17 18 16 15 16 15 14 16 14 12 9 8 10 10 15 18 17 17 15 18 16 18 19
8 12 9 9 10 9 10 8 7 8 15 15 10 23 18 16 19 22 25 23 22 22 22 21 22 23 23 23 21 18 17 16 16 16 15 16 15 14 16 17 19 17 13 15 17 17 20 19 17 14 12 13 13 13 16 14 11 10 12 14 15 13 9 11 14 17 16 15 15 16 17 18 19 20 19 20 18 17 17 15 17 15 14 13 13 12 13 14 13 12 14 18 19 15 13 16 18
10 9 10 12 8 12 16 8 8 11 11 20 14 26 17 14 15 23 22 21 21 21 23 23 23 24 23 22 22 22 21 22 24 23 22 22 20 17 16 15 13 11 11 11 15 17 16 13 13 13 14 14 15 18 18 17 18 18 17 15 12 12 10 7 9 7 12 12 16 16 18 22 22 21 20 20 21 17 16 16 15 16 16 16 17 18 18 17 16 18 19 17 17 18 17 18 17
5 9 10 7 8 8 9 11 6 7 15 11 19 20 16 19 19 21 20 19 24 23 23 24 24 22 21 21 24 24 21 20 20 22 20 19 19 17 15 11 8 8 10 10 13 16 14 18 19 18 18 16 16 16 19 17 18 18 17 14 12 14 10 10 14 16 16 18 17 17 21 20 21 19 17 19 19 17 17 17 16 18 18 17 17 17 18 21 20 19 22 20 22 21 20 17 18
11 9 12 12 9 9 7 9 12 12 14 10 9 15 10 12 16 19 17 21 26 23 24 24 23 23 23 23 22 23 24 22 21 23 21 19 19 17 17 15 14 11 8 8 13 18 17 14 10 16 15 14 15 15 14 14 17 20 18 18 15 14 17 15 21 22 19 18 21 17 15 18 18 20 17 17 17 17 17 18 18 20 18 20 15 13 16 16 15 20 23 23 22 19 20 20 20
13 17 12 9 11 8 7 10 9 12 16 14 8 11 14 7 14 16 16 19 22 22 23 21 22 22 22 23 22 23 23 22 22 22 22 24 21 19 18 19 18 18 20 20 18 17 18 17 16 14 13 9 10 10 12 12 13 15 18 19 19 19 18 19 17 15 17 19 15 16 16 14 14 16 16 16 16 17 18 18 21 24 21 20 17 14 17 19 18 20 20 22 22 19 17 20 21
19 5 15 11 10 11 10 9 9 6 9 8 8 9 19 16 13 12 11 18 19 20 21 22 22 22 22 21 22 21 23 21 21 20 22 20 19 21 21 21 18 20 20 21 23 25 23 20 18 14 10 8 7 9 11 11 11 10 11 14 14 16 15 14 14 15 16 17 17 17 15 13 15 16 17 17 19 19 19 20 23 23 22 22 22 20 20 18 18 12 13 14 18 22 19 17 20
12 8 15 18 16 14 10 10 8 6 9 12 10 8 17 9 10 10 10 14 18 20 21 21 21 21 21 22 22 21 20 21 22 22 22 21 21 21 20 20 19 20 21 21 21 21 20 16 16 16 14 11 9 5 9 11 10 10 10 9 10 12 13 13 12 13 15 16 17 15 15 10 11 14 15 16 15 18 20 20 22 24 22 19 18 17 17 19 19 23 22 24 21 20 20 14 18
8 13 11 10 11 11 8 9 10 7 10 12 15 9 17 8 9 8 11 15 16 15 17 19 20 21 21 21 21 22 21 21 21 19 19 21 20 19 19 20 21 20 18 19 21 19 19 20 19 14 13 13 10 5 8 9 9 9 12 15 16 16 13 12 11 13 16 15 16 14 16 14 11 11 13 14 13 17 19 21 23 23 21 21 19 17 15 16 19 22 24 24 24 21 16 16 19
14 14 14 10 11 8 8 10 7 9 12 9 8 9 10 16 7 6 7 9 10 11 15 18 20 21 21 21 20 21 21 21 22 21 20 20 17 18 19 20 20 21 21 22 21 22 21 20 18 16 14 13 10 5 8 12 12 12 16 16 15 14 12 11 11 15 16 15 14 14 13 11 13 14 13 13 15 18 19 22 20 18 17 19 21 20 20 22 22 23 22 20 22 23 21 20 20
19 13 13 14 10 8 8 7 7 14 14 7 7 7 10 16 12 9 11 12 13 14 15 17 18 19 19 18 19 20 19 19 18 19 20 21 21 22 22 22 21 21 22 23 21 20 21 20 20 17 17 15 14 9 8 10 11 14 15 14 14 11 9 10 14 17 15 15 14 13 14 12 14 12 13 13 16 18 20 21 19 19 19 19 21 18 17 20 20 21 21 22 22 19 17 19 20
9 13 18 24 18 16 17 14 17 21 16 9 7 9 12 14 10 18 15 15 18 17 18 17 17 17 17 18 19 19 19 20 22 23 24 26 26 25 23 22 22 23 23 22 23 22 21 20 20 19 17 16 13 10 9 10 9 9 9 9 9 7 8 11 16 17 16 16 16 14 12 14 14 12 15 15 13 17 19 19 18 22 20 19 16 19 19 20 19 20 23 22 20 23 24 23 21
13 25 22 28 26 23 16 13 9 8 8 7 9 10 14 15 13 14 18 17 18 18 18 18 18 17 16 17 17 19 20 20 20 21 21 21 22 21 21 20 21 21 22 22 22 22 22 23 23 22 20 18 15 14 11 11 8 6 7 8 10 11 13 13 14 15 15 15 16 15 17 16 16 14 16 14 12 13 13 14 15 17 20 18 16 18 20 20 21 23 22 23 23 24 21 20 22
18 6 23 13 16 26 19 19 20 16 13 7 8 10 21 17 12 19 17 18 21 19 18 17 16 15 14 15 16 18 19 19 21 19 20 21 21 21 21 22 20 20 21 21 21 22 21 21 22 23 23 24 22 20 18 16 13 11 11 11 12 12 12 14 14 14 14 14 15 15 15 14 14 15 16 15 14 15 14 15 14 15 17 17 18 18 19 19 19 20 20 22 21 21 22 24 23
9 10 9 15 20 13 12 10 10 13 14 8 12 9 8 9 6 19 17 17 20 19 17 17 16 15 15 17 18 19 19 18 19 19 20 21 20 19 20 20 21 22 22 22 23 23 23 23 22 21 21 20 21 20 20 18 17 15 13 13 13 13 13 13 12 11 12 14 14 18 18 17 16 15 13 15 14 11 11 13 14 15 15 17 20 20 20 20 20 19 17 19 21 21 22 24 23
19 13 21 11 10 20 16 6 8 7 11 8 5 10 10 11 10 17 17 16 17 17 17 17 16 15 16 18 17 17 16 17 18 18 18 20 20 21 19 18 19 20 20 19 19 20 20 20 21 23 24 22 23 21 20 19 18 17 16 16 13 11 10 10 11 10 12 12 12 15 19 21 21 18 15 13 16 17 16 15 15 17 16 16 19 20 20 18 19 20 20 21 21 22 21 23 22
24 21 16 9 8 9 16 17 7 8 14 11 6 11 13 18 15 16 15 16 11 14 16 17 16 17 19 17 17 17 17 17 18 18 19 19 19 20 20 19 18 18 18 19 21 18 18 17 18 20 20 21 21 20 20 18 20 18 17 16 14 12 11 12 14 14 13 13 13 15 15 14 17 20 18 12 16 18 15 17 19 19 18 18 18 19 20 21 19 21 21 21 23 20 20 20 19
17 17 17 22 11 16 8 19 11 14 11 13 9 11 13 17 8 12 16 15 13 12 13 15 19 19 16 16 16 16 16 17 17 18 20 20 20 20 20 20 20 19 18 19 20 21 20 19 19 17 17 17 16 16 15 16 17 16 17 18 16 15 13 14 15 14 12 14 15 14 17 17 15 17 18 16 17 15 18 22 20 21 20 21 20 18 18 19 20 21 21 20 18 19 21 20 15
10 15 17 8 10 9 16 12 12 16 11 12 10 13 14 17 7 10 13 17 16 13 15 17 17 16 15 15 16 16 16 17 17 18 19 20 20 19 20 21 22 22 21 22 22 22 22 21 20 21 19 18 20 21 20 19 20 18 19 19 18 17 16 16 14 13 13 14 15 15 16 17 19 19 19 19 18 19 19 21 20 20 18 18 20 21 19 19 22 22 20 21 19 21 22 21 20
12 20 15 11 11 7 13 11 8 15 22 14 17 15 16 14 10 9 12 17 13 14 18 17 16 15 15 15 15 15 16 17 18 19 19 19 20 21 21 22 22 21 21 22 24 24 22 21 20 21 22 22 22 20 19 20 21 21 19 19 20 19 18 17 14 14 15 15 15 13 15 16 17 19 19 18 19 19 20 22 22 20 19 19 20 21 21 19 20 20 23 21 22 23 22 22 21
18 21 15 15 18 18 19 9 8 10 18 21 18 14 11 9 11 11 17 14 16 15 18 18 16 16 15 15 15 15 16 17 17 18 19 19 20 20 21 23 23 24 25 25 25 24 24 25 25 24 23 22 22 23 23 24 22 23 22 21 21 19 19 17 15 15 15 15 15 15 16 17 18 20 19 19 20 19 19 20 21 23 22 21 22 22 23 22 20 19 22 24 22 22 20 21 22
Wind_Speed
2 2 2 1 1 1 1 3 4 2 1 3 1 4 1 2 3 5 3 6 2 4 4 3 1 1 4 2 7 7 2 2 1 2 3 3 4 8 10 13 15 16 16 15 14 15 16 16 17 17 18 20 19 19 18 18 17 16 16 16 16 16 17 17 18 17 18 18 18 17 17 17 16 16 16 16 16 15 18 18 19 19 19 19 19 19 19 20 20 20 20 19 17 18 18 18 18
0 1 1 2 1 1 2 2 2 1 1 1 5 2 3 2 1 5 3 3 2 2 1 3 7 7 9 12 11 7 8 5 1 2 4 5 8 7 11 15 15 16 15 14 13 13 15 16 17 17 19 19 19 19 19 19 18 17 16 16 16 17 17 17 17 17 17 18 18 17 17 16 16 16 16 16 13 13 14 17 20 19 18 18 19 19 20 20 20 20 19 17 17 17 18 18 18
1 1 1 1 0 2 4 1 3 1 3 5 2 6 3 4 5 2 5 4 5 8 4 7 3 4 1 7 3 5 3 2 4 4 5 9 12 9 12 15 15 15 15 13 12 13 12 15 15 18 20 20 19 19 19 18 18 17 17 16 16 17 17 17 17 17 17 17 17 17 17 17 17 16 15 15 13 12 13 14 18 19 18 19 19 19 19 19 19 18 18 17 16 16 16 17 17
1 1 1 1 2 2 2 1 1 4 3 1 3 5 4 4 4 3 3 6 9 8 5 3 2 3 4 8 5 0 5 3 2 6 6 10 7 11 12 14 14 13 12 12 13 12 12 16 16 18 20 20 20 19 19 19 18 18 17 16 15 16 16 17 17 17 17 17 17 17 17 17 17 16 16 15 11 11 13 11 14 18 18 17 18 19 18 18 18 18 16 16 16 16 16 16 16
1 0 1 0 1 2 1 1 1 2 6 4 1 0 5 6 1 3 4 6 10 6 5 2 3 5 5 6 3 1 3 3 4 5 4 7 6 11 13 15 14 13 13 13 12 12 13 20 17 16 18 20 20 19 19 19 18 17 16 16 16 16 16 16 16 16 17 17 17 17 17 16 16 16 16 15 11 10 11 11 11 14 16 16 14 14 15 16 17 16 14 14 14 13 13 14 15
0 2 1 1 1 2 3 3 2 5 2 3 3 2 1 2 3 4 8 7 6 0 5 1 0 4 2 3 4 2 2 3 2 5 6 6 12 13 15 14 13 13 13 12 12 11 14 18 17 17 18 19 19 20 19 19 18 17 17 17 16 16 16 16 16 16 16 17 17 17 17 17 16 16 15 14 12 12 12 12 11 10 14 16 15 16 17 16 16 14 13 13 13 12 12 12 13
0 1 3 2 3 1 1 1 2 3 4 5 4 6 0 1 4 5 8 7 3 4 3 3 8 8 4 0 1 2 2 4 2 2 6 9 11 12 13 12 12 13 13 12 12 12 17 16 16 17 18 20 21 20 19 18 18 18 18 17 16 16 15 16 16 16 16 16 16 16 16 16 16 17 16 16 14 13 12 12 14 14 14 14 15 16 16 16 15 14 13 12 12 12 12 11 12
1 2 1 1 2 1 1 0 3 3 0 6 3 8 8 4 2 5 7 2 2 2 5 5 2 4 1 2 0 3 2 1 3 3 7 11 11 12 13 11 12 12 13 12 11 10 16 14 15 16 18 18 20 20 19 19 18 18 17 16 16 17 15 15 14 15 14 15 15 14 16 16 16 16 16 15 16 15 14 13 13 12 13 13 14 15 16 15 15 14 13 11 11 12 12 13 14
2 2 1 2 2 2 2 2 3 2 6 5 9 11 12 10 8 7 8 3 1 2 6 5 3 2 3 2 1 1 1 2 1 6 9 12 13 13 10 12 12 12 12 11 10 11 13 12 12 14 17 17 19 19 18 18 18 18 17 17 16 14 14 14 14 14 13 13 12 13 15 15 15 15 15 15 15 14 13 12 12 13 12 13 14 15 15 15 15 14 13 12 12 13 13 14 15
3 2 2 1 2 4 2 1 2 1 4 3 8 11 9 6 7 8 8 2 1 6 2 1 3 3 7 3 1 0 2 2 4 8 10 11 12 12 11 12 12 13 11 11 11 12 11 15 11 13 14 16 18 17 18 17 17 16 16 16 14 14 14 14 13 12 13 13 11 10 12 14 14 13 13 14 15 13 12 11 11 12 12 12 13 14 13 14 15 14 13 12 12 13 13 14 14
3 3 1 3 2 1 4 2 5 6 5 4 9 10 10 7 7 6 4 3 1 4 5 2 6 9 6 2 1 3 2 2 6 9 10 11 12 12 11 11 11 12 12 12 12 12 12 13 17 14 14 15 15 15 15 16 16 15 15 14 13 15 14 13 12 12 13 13 11 9 10 11 12 12 13 14 14 13 13 12 11 11 11 12 12 13 13 13 13 13 12 12 12 12 12 12 14
3 1 2 2 2 1 1 3 5 6 7 4 4 2 1 3 2 3 4 7 6 9 5 5 5 10 7 4 2 0 1 4 5 8 10 11 10 11 11 9 10 11 12 13 13 12 13 12 13 16 16 15 15 14 14 15 15 15 14 14 13 14 13 12 12 12 13 14 12 10 10 10 12 12 12 13 13 12 12 12 12 12 12 12 12 12 12 12 11 11 11 11 12 12 12 13 14
1 1 3 2 1 2 2 3 3 4 6 2 5 5 2 2 2 1 5 5 6 7 4 4 12 4 5 4 2 2 5 6 5 7 9 10 10 9 9 10 11 12 12 13 13 13 13 12 12 13 14 17 15 14 14 14 14 14 14 13 12 13 13 13 12 12 12 13 13 11 10 9 10 13 12 12 11 11 11 12 12 12 12 11 11 11 11 11 10 9 10 11 12 12 13 13 14
2 2 3 2 1 1 2 2 1 3 1 2 2 9 5 2 3 5 9 8 4 0 3 6 8 5 5 3 2 5 6 8 6 8 8 9 9 9 10 9 10 11 12 13 13 13 13 12 11 12 14 14 14 14 14 14 13 13 12 11 12 13 13 12 12 12 11 13 14 13 10 10 12 12 11 10 11 11 11 11 12 12 12 11 10 11 11 10 10 9 10 12 12 13 13 14 14
2 1 2 2 2 0 1 3 1 1 2 1 4 7 6 3 1 1 2 10 3 2 5 3 3 3 3 7 4 8 7 11 9 9 8 8 9 9 9 9 9 10 11 12 12 13 13 12 12 11 13 12 13 11 11 13 14 12 11 12 12 13 13 13 12 12 12 12 13 12 12 14 14 13 12 10 10 10 10 10 11 12 11 11 11 10 10 10 10 10 11 12 13 13 13 13 14
3 2 2 2 2 3 2 4 2 2 1 0 3 7 3 6 4 1 4 5 6 1 2 4 1 2 1 3 4 8 9 12 10 10 9 10 9 7 9 9 9 10 10 11 11 11 11 12 11 10 11 12 11 10 11 12 14 14 12 12 12 13 14 13 11 12 14 13 13 13 14 14 14 13 13 10 10 9 8 8 11 11 11 11 11 11 11 10 11 12 12 13 13 13 13 13 13
2 0 3 2 4 4 3 4 4 2 2 2 3 9 6 3 3 3 3 4 11 4 2 2 3 3 1 2 4 9 13 12 11 11 10 9 8 7 8 7 8 8 7 10 10 10 10 11 11 9 9 11 10 9 8 10 12 15 13 14 14 14 14 15 12 13 14 14 14 12 10 9 10 10 10 9 10 7 8 9 10 11 11 11 11 10 10 10 11 13 13 13 14 14 13 13 12
2 3 3 4 1 5 4 6 6 3 3 6 6 5 5 0 2 4 5 9 6 3 2 3 0 3 3 3 5 12 14 13 13 13 11 10 9 8 7 9 9 9 7 8 8 8 9 9 9 9 8 11 9 7 6 7 9 12 11 12 12 12 14 14 13 11 12 11 11 9 7 6 7 8 9 9 7 8 8 9 10 10 10 11 10 9 9 9 11 12 14 14 14 14 14 9 9
3 2 3 6 5 2 2 1 3 2 4 6 6 3 2 3 5 3 2 3 4 4 2 2 1 2 5 6 9 13 14 13 13 12 13 12 10 11 9 9 9 9 9 8 7 8 8 6 8 8 10 10 10 9 8 8 10 9 10 10 9 11 11 11 10 11 9 9 9 7 6 5 7 7 7 6 7 8 8 8 10 10 10 10 10 10 9 9 10 12 13 14 12 12 8 6 6
2 3 5 7 3 3 4 2 5 7 5 9 9 4 4 4 2 2 3 5 2 4 4 2 3 5 6 6 10 12 13 13 12 13 13 11 11 11 10 10 9 9 10 9 9 7 7 6 8 7 9 11 9 7 7 7 8 8 8 8 8 8 9 8 9 8 7 8 7 6 5 6 6 6 8 10 10 7 7 8 9 10 11 10 11 9 9 9 12 11 12 13 10 7 5 6 5
3 3 6 3 2 5 3 6 7 5 2 4 4 6 5 5 3 3 6 6 2 3 6 4 7 8 10 9 11 12 12 12 13 12 11 11 10 9 9 10 9 9 8 7 6 7 7 7 8 6 8 9 9 8 8 8 9 8 8 8 8 7 8 8 7 6 7 8 7 6 6 6 6 6 7 6 6 6 6 6 7 7 7 7 7 8 7 5 5 7 7 7 6 6 6 5 5
5 6 2 3 3 2 6 5 2 2 1 1 2 9 4 6 2 5 10 2 3 4 6 10 6 8 13 14 13 12 13 13 14 13 12 12 12 11 9 7 7 7 7 7 7 6 8 10 8 8 9 9 10 9 9 9 9 8 9 8 8 8 7 8 8 6 6 7 7 6 5 5 7 6 6 5 6 6 6 6 6 6 7 7 7 8 6 4 5 6 6 6 5 5 5 5 4
6 2 4 6 4 7 2 1 1 3 2 4 7 2 3 4 4 1 5 3 2 3 5 7 3 4 8 9 12 13 14 15 14 14 13 13 13 11 9 7 8 8 7 7 7 7 7 11 10 9 8 9 11 10 9 9 9 8 8 8 9 8 7 7 7 7 7 7 7 7 6 7 6 6 7 5 6 6 6 6 5 5 6 6 5 5 6 5 5 5 5 6 5 6 6 5 5
4 4 1 5 5 9 2 8 4 5 2 6 2 2 4 2 4 2 4 2 5 8 5 2 5 9 10 11 12 13 14 14 13 11 10 10 10 9 8 6 7 6 8 7 7 8 8 10 11 11 10 9 9 10 10 9 9 8 8 9 8 8 8 8 7 7 8 6 7 6 5 6 6 6 7 7 6 5 5 5 4 3 4 5 4 5 6 5 4 4 5 6 7 6 6 6 5
7 6 5 5 3 4 6 6 6 4 7 7 3 5 2 6 2 3 4 4 6 1 4 5 7 9 9 10 12 11 11 10 10 10 8 8 6 6 7 6 8 7 10 9 9 9 11 12 12 12 10 9 8 9 10 8 9 9 9 9 8 8 8 8 8 7 7 7 7 8 7 7 7 6 7 7 6 6 5 5 5 3 3 4 5 4 5 5 4 5 5 6 6 6 6 5 5
7 9 2 2 5 2 3 7 7 4 3 3 3 4 3 4 3 3 4 6 2 2 5 6 7 8 9 10 11 11 11 11 10 10 10 7 8 8 8 8 8 10 10 9 12 10 11 11 13 13 12 10 10 11 9 8 9 9 9 9 8 9 7 7 9 7 6 7 7 8 9 8 7 7 7 7 6 6 5 5 5 5 3 3 4 5 4 4 4 4 5 6 7 6 6 5 5
6 8 9 10 7 3 3 4 5 1 4 4 4 3 3 4 4 3 2 2 2 5 5 5 6 7 8 7 9 10 10 11 11 9 9 8 9 8 8 8 10 10 11 12 13 11 9 11 12 12 12 10 10 11 9 9 9 9 9 8 8 9 8 7 8 8 7 7 8 9 9 8 8 7 7 7 7 7 6 6 6 6 4 3 4 5 4 4 4 4 5 6 6 6 5 5 5
4 5 3 6 6 4 7 6 10 1 5 5 8 1 2 3 2 1 3 5 5 6 7 6 6 6 6 7 6 8 8 8 8 9 11 10 9 10 10 10 11 11 13 14 13 11 9 12 12 12 12 12 10 11 10 9 10 9 8 8 8 8 8 8 8 8 7 7 8 9 8 8 7 7 8 7 7 7 7 7 6 6 6 4 4 5 5 4 4 4 3 4 4 5 5 5 4
3 6 4 3 0 6 5 6 1 2 3 3 6 2 2 2 3 3 3 6 6 4 5 6 7 6 5 6 6 7 7 8 9 9 10 10 10 10 12 11 11 11 9 11 10 11 12 12 10 11 10 12 12 12 10 10 9 9 8 8 7 7 7 8 8 8 9 8 6 9 8 8 8 8 7 8 8 7 7 7 7 6 5 4 4 5 6 5 5 4 4 4 4 5 5 5 4
4 2 2 3 2 4 1 1 1 3 1 2 5 4 0 1 4 8 2 6 7 6 7 7 6 6 6 6 6 7 6 8 9 8 9 9 9 10 11 10 11 9 8 8 9 11 10 8 7 7 9 10 11 11 10 10 9 8 8 8 8 8 8 8 8 8 9 9 8 8 8 8 8 7 8 8 7 7 7 7 7 7 6 4 3 4 5 5 5 5 5 5 5 6 6 5 4
6 3 1 1 2 3 1 1 1 4 1 2 2 4 3 3 9 10 4 5 6 8 8 8 7 6 6 7 7 7 8 8 7 6 6 6 5 5 8 8 9 9 7 7 9 9 8 6 6 7 6 8 10 10 10 10 8 8 8 8 8 9 8 8 7 8 9 9 8 7 9 8 9 8 9 8 8 7 7 7 7 7 7 6 4 4 5 5 5 6 6 6 6 6 6 6 6
1 6 5 1 3 2 4 2 3 3 3 2 2 1 2 6 10 11 4 2 4 5 4 6 7 6 7 7 8 7 7 6 5 3 2 3 3 2 4 6 6 7 7 6 5 5 7 7 6 7 6 7 8 8 9 8 8 8 8 8 7 9 9 8 8 8 8 8 8 8 9 9 9 9 10 9 8 8 7 7 7 7 7 6 4 4 4 6 5 5 5 6 7 6 7 6 5
3 4 2 4 2 1 1 2 1 2 2 3 2 1 3 4 12 11 8 2 4 5 5 6 7 7 7 7 7 7 8 8 4 4 5 2 2 2 2 1 1 3 3 4 4 5 6 6 5 5 3 4 5 5 6 7 7 8 8 8 9 8 9 8 8 7 8 8 8 8 7 8 9 10 10 9 8 8 7 6 6 7 7 5 4 4 5 6 5 5 4 4 5 7 7 7 6
4 2 3 0 6 4 3 1 2 3 2 6 3 3 5 5 10 11 11 7 4 8 6 6 6 6 6 7 8 8 9 8 10 10 10 6 4 5 4 3 3 3 3 3 3 4 4 3 3 5 4 3 4 3 4 4 6 7 7 7 8 8 9 8 7 7 7 7 7 7 9 8 8 10 10 9 8 8 7 7 6 6 6 5 5 5 5 5 5 5 5 4 4 5 6 7 7
5 5 4 3 1 2 2 3 2 1 4 5 7 9 7 7 8 11 10 10 3 4 5 4 4 6 6 6 7 8 9 8 8 9 8 7 6 5 5 5 4 4 4 4 4 5 4 6 7 3 3 5 5 5 5 5 5 6 6 6 6 6 6 6 5 7 8 8 8 7 8 7 7 9 9 9 8 8 8 7 6 6 6 5 6 6 6 5 4 4 5 6 4 4 5 6 6
9 9 5 4 6 5 4 2 1 2 3 5 6 5 7 10 11 11 11 11 11 9 7 4 4 4 6 6 7 7 8 8 8 9 8 6 6 6 7 6 7 6 6 7 8 6 5 6 2 4 5 6 8 7 6 5 4 5 7 6 7 7 8 9 7 6 7 8 8 6 7 8 6 9 10 10 9 8 8 8 6 7 5 5 6 7 6 6 7 7 7 8 7 5 5 6 7
6 4 5 5 4 2 2 3 1 1 8 7 8 10 10 11 11 10 9 10 15 14 13 10 9 7 5 6 8 9 8 8 6 7 9 8 8 7 8 8 9 10 10 9 10 10 10 9 10 8 8 8 6 3 4 6 6 8 8 9 10 9 9 8 8 5 5 3 3 8 9 8 9 9 8 9 9 8 7 5 6 7 6 6 5 6 6 7 8 8 7 7 9 8 7 7 8
9 7 5 4 2 6 2 4 4 1 2 3 5 13 11 10 10 11 10 14 16 14 13 13 11 11 9 10 10 8 5 2 6 8 9 9 8 9 8 9 11 11 7 8 9 9 10 11 10 7 6 2 1 3 3 3 4 6 6 6 7 7 8 9 8 6 8 8 8 7 6 7 9 8 6 8 9 8 8 8 7 8 6 5 4 3 4 5 8 7 7 7 7 8 7 9 9
3 5 4 4 4 2 1 3 2 2 7 6 4 12 9 9 11 11 13 13 12 13 14 13 14 15 13 13 12 11 9 9 9 9 8 9 9 9 8 9 6 6 6 7 7 7 8 8 6 7 7 7 6 7 9 8 6 5 6 6 7 6 4 6 6 8 8 7 7 5 7 9 10 10 9 10 9 9 8 8 8 6 6 6 6 6 6 6 6 6 7 7 7 6 5 5 8
4 3 4 5 3 5 6 3 3 5 1 9 8 14 7 6 8 13 12 12 11 13 15 15 14 14 13 14 13 12 13 13 15 14 13 12 11 10 9 7 5 5 5 6 8 10 8 7 8 9 7 8 8 10 10 10 11 11 10 9 7 7 4 1 1 3 7 6 6 8 8 12 13 11 10 10 10 9 9 8 7 7 7 8 8 8 9 8 9 9 9 9 6 7 7 8 9
1 5 4 2 3 2 1 4 1 3 8 5 12 9 6 8 8 9 10 11 12 13 14 15 14 13 13 13 15 15 13 12 12 13 12 11 11 9 6 2 1 3 4 3 6 4 1 1 2 5 9 9 9 10 11 10 9 10 8 8 6 7 5 4 6 8 7 9 9 9 10 10 11 8 8 9 8 9 9 8 8 9 8 8 8 9 9 9 9 9 11 10 12 10 10 8 9
4 5 7 7 5 5 1 5 6 5 5 4 3 5 3 5 9 9 8 9 13 13 15 15 14 14 14 14 14 14 15 14 14 15 14 12 12 11 10 9 8 5 3 3 5 10 10 8 3 3 3 3 7 9 8 8 8 9 8 8 7 6 6 6 10 11 10 9 9 9 9 9 10 11 10 9 8 9 9 9 10 10 9 9 8 6 7 7 9 10 11 11 12 10 9 10 9
6 6 7 3 5 3 3 5 3 4 6 5 2 2 3 1 6 8 8 10 13 13 14 13 13 12 13 13 13 13 13 12 12 13 14 15 13 12 11 12 11 11 11 11 9 10 11 10 9 6 4 4 2 5 7 6 6 7 9 9 9 8 8 9 9 8 8 9 6 8 8 7 8 7 8 8 9 10 9 10 11 10 9 9 9 7 8 10 8 10 8 9 10 8 7 9 11
7 2 10 6 5 6 5 4 4 1 4 3 1 1 7 5 4 6 5 10 12 12 12 12 12 13 13 13 13 13 13 13 11 13 14 12 12 13 14 13 11 11 12 12 12 10 11 11 10 9 5 2 3 3 5 5 6 5 6 9 8 8 8 7 7 7 7 7 8 9 7 7 9 9 8 9 7 9 9 9 11 10 9 9 11 10 8 9 9 6 7 7 7 9 9 8 10
3 4 10 11 10 8 5 4 2 1 3 5 3 2 5 1 2 4 3 7 10 11 11 12 13 13 13 14 13 13 12 13 13 13 14 13 13 13 12 12 12 13 12 12 12 12 11 9 7 6 8 6 2 2 4 6 5 5 5 4 5 5 5 5 5 6 7 8 10 8 8 6 6 7 7 6 4 5 6 8 11 11 9 8 8 9 8 9 10 12 12 11 11 9 9 6 8
1 7 6 5 6 5 3 3 3 2 3 5 8 2 3 2 2 1 4 7 7 8 10 11 12 12 12 12 13 13 12 11 11 11 12 13 12 12 11 12 14 11 10 11 12 11 10 11 12 9 8 6 5 1 4 4 5 5 6 8 10 8 5 4 5 6 7 7 8 7 8 7 4 4 6 5 5 8 9 8 9 11 10 11 10 7 7 10 10 12 13 14 13 12 7 7 8
9 9 8 4 4 2 2 3 1 3 4 3 3 3 2 4 2 1 2 2 3 5 7 9 11 12 13 13 12 12 11 12 12 12 12 12 11 11 10 11 11 13 11 13 12 12 12 12 11 10 9 7 6 2 3 6 6 7 8 9 9 8 5 4 6 8 8 6 6 7 6 5 5 6 6 6 6 8 9 9 8 7 6 8 10 11 8 9 11 12 11 12 13 13 11 10 11
12 3 4 6 3 1 2 1 0 3 4 3 1 2 5 5 4 3 4 6 7 7 9 10 11 11 11 11 10 11 11 10 10 11 12 13 13 14 13 14 13 13 13 13 12 11 12 11 12 11 10 9 8 5 4 5 5 7 8 8 8 6 5 4 7 9 8 7 7 7 7 5 3 3 5 4 6 8 9 8 7 6 7 9 9 10 9 10 10 10 9 10 11 10 8 8 9
3 6 8 11 5 3 4 3 5 7 4 2 1 3 3 6 4 9 8 8 11 10 10 10 10 10 10 10 11 10 10 12 12 13 14 15 15 14 14 13 14 14 13 13 14 12 11 11 12 12 11 10 7 5 3 4 2 1 2 4 5 4 4 6 8 8 7 7 7 6 5 2 3 3 5 6 5 7 6 6 7 9 8 9 9 9 10 11 10 10 12 12 11 13 12 12 9
6 11 10 12 9 7 4 4 2 1 1 0 2 4 4 7 6 8 10 10 11 11 11 11 10 10 9 9 10 11 11 11 11 11 12 12 12 11 12 12 12 12 14 13 13 13 12 13 14 14 13 11 9 9 7 6 4 3 3 4 5 6 6 6 7 7 5 5 6 6 8 8 9 7 8 7 7 8 6 4 5 6 9 9 8 10 10 11 12 11 11 12 13 12 11 12 11
7 2 10 5 4 4 4 5 6 5 4 2 2 3 7 8 5 12 11 11 13 11 10 10 10 9 8 8 9 11 11 11 11 10 11 12 12 13 12 13 11 11 13 12 12 12 12 12 13 15 14 14 13 12 10 10 7 6 6 5 6 6 6 6 6 6 5 5 5 7 8 8 7 7 8 8 7 8 8 8 8 8 7 8 10 10 10 10 10 10 10 11 10 10 11 11 10
2 2 3 5 7 3 4 1 1 4 4 2 5 2 2 3 2 11 9 10 12 11 10 10 9 8 8 9 10 10 10 10 10 11 11 12 12 12 12 11 11 11 13 13 14 13 13 13 13 13 12 12 12 12 12 11 10 8 8 7 7 7 6 6 5 4 5 6 7 8 9 9 8 6 6 7 8 6 5 5 6 9 9 8 8 9 9 10 11 10 9 9 11 9 10 13 10
7 4 8 2 4 10 6 2 3 3 3 2 1 3 3 5 4 10 11 10 10 10 10 10 9 9 9 9 9 9 9 9 10 10 10 12 12 12 10 11 10 11 11 11 11 10 11 11 12 13 13 13 14 13 11 11 10 10 9 9 7 6 5 5 5 6 6 5 6 7 9 10 10 9 8 6 9 10 9 9 8 8 8 7 7 8 9 10 11 10 9 11 11 11 11 11 10
8 7 6 4 2 4 3 5 0 0 3 2 1 5 6 8 4 8 9 10 6 8 9 10 9 9 10 8 9 9 9 10 10 11 11 12 11 12 11 11 11 11 11 11 12 11 10 9 11 11 12 13 12 11 11 10 11 10 9 8 7 7 6 6 7 7 7 7 7 8 8 7 9 10 9 7 7 6 7 10 11 10 9 9 10 9 9 10 10 10 10 11 10 10 11 9 9
8 7 9 6 3 7 2 3 3 4 2 3 3 6 5 8 2 6 10 9 8 7 7 8 10 10 9 8 9 9 9 9 9 9 10 11 11 11 12 12 12 11 11 11 11 12 11 10 10 9 10 10 10 8 8 8 10 8 8 10 9 7 6 7 7 7 7 7 8 7 8 8 7 8 8 8 8 7 7 8 9 10 11 12 12 10 10 9 9 9 10 9 9 10 11 10 7
5 8 7 3 2 4 5 0 3 4 4 4 4 6 4 7 1 5 7 11 9 7 8 10 9 9 7 8 9 9 9 9 9 9 10 10 11 12 12 13 13 13 13 13 13 12 12 12 12 12 11 10 12 12 11 11 11 10 10 10 10 9 8 7 7 7 6 7 8 8 8 9 9 9 9 10 9 10 10 11 11 10 11 10 11 11 9 10 9 9 10 10 10 11 12 10 9
5 9 5 3 3 2 4 4 1 3 6 4 6 5 5 5 3 3 7 10 7 8 10 9 8 8 9 9 8 8 8 8 9 10 10 11 12 12 13 13 12 12 12 13 13 14 13 11 12 13 13 13 13 12 11 11 10 11 11 11 11 10 10 8 7 7 6 7 7 7 8 8 9 10 10 9 10 11 11 11 12 11 11 11 11 11 11 8 8 9 10 11 12 12 12 10 8
8 9 6 7 8 7 8 3 2 2 5 6 6 3 4 3 4 4 9 7 9 9 11 10 9 9 9 8 9 8 8 9 10 10 11 10 12 12 12 13 13 13 14 15 14 13 14 14 13 13 12 12 13 12 12 13 12 11 13 12 11 10 10 9 8 8 7 7 7 7 8 9 11 11 10 10 10 9 10 11 12 13 13 12 12 12 13 11 10 10 10 9 11 11 10 10 10
Wind_Direction
6 342 293 305 313 278 266 21 233 102 225 218 277 188 41 237 328 300 253 294 272 44 356 348 194 293 286 40 99 96 40 244 347 288 51 90 151 157 154 151 144 145 140 140 141 146 147 144 141 136 133 131 132 132 132 131 130 128 126 126 126 125 124 125 126 125 126 126 127 128 128 128 127 125 125 125 124 123 120 122 118 115 113 109 109 109 107 107 104 101 98 96 98 99 98 96 96
15 331 338 266 282 288 156 302 87 144 54 183 224 96 253 101 230 231 272 321 341 2 13 24 69 72 72 89 123 149 65 40 216 61 61 116 156 144 155 153 149 147 143 144 143 147 149 146 140 137 134 133 133 134 134 132 131 130 129 130 129 126 125 126 126 127 128 129 129 129 130 131 130 127 127 124 123 121 124 127 121 116 115 113 111 110 109 109 107 103 99 99 99 95 97 97 96
42 283 202 208 178 9 107 300 234 65 185 230 207 210 68 194 211 210 247 259 308 301 306 305 234 17 319 180 112 354 95 126 122 123 102 142 147 164 157 154 152 145 144 144 144 147 145 144 141 139 137 135 134 134 132 130 132 131 131 132 131 129 129 130 131 131 130 129 130 130 131 132 130 129 126 124 125 125 124 127 125 121 120 118 114 111 109 108 106 104 101 96 96 97 98 99 98
224 7 253 208 150 261 119 89 87 161 191 238 301 199 205 197 207 230 257 271 279 290 310 309 39 3 291 85 53 291 79 135 169 140 136 164 161 156 156 150 149 147 144 146 147 146 144 145 146 142 138 135 135 132 131 132 132 133 134 132 132 132 133 134 135 132 131 131 132 131 132 133 132 130 129 128 127 126 128 126 125 123 119 119 117 115 113 110 108 104 96 97 101 102 103 105 105
274 89 262 14 205 124 170 62 113 140 225 169 67 150 201 216 56 278 280 292 287 244 228 170 117 7 43 56 344 300 89 99 165 189 143 158 145 152 155 149 151 148 149 147 148 148 146 148 147 142 138 136 135 134 135 134 135 136 135 135 135 136 137 139 136 134 135 135 133 133 132 131 130 130 127 126 115 113 121 127 122 120 123 121 115 110 109 109 106 100 96 95 95 95 100 109 111
101 272 11 266 319 46 105 168 154 210 288 119 256 38 76 125 276 303 296 311 329 122 188 158 172 175 79 31 349 11 130 118 52 185 168 158 155 151 154 150 152 152 151 150 150 151 151 150 147 144 141 138 138 137 136 136 138 137 136 136 136 138 140 140 136 135 135 134 134 134 133 133 133 130 127 124 119 113 105 102 106 115 121 122 118 113 112 111 108 102 99 95 92 94 100 109 118
111 141 21 93 110 314 235 203 209 234 246 183 265 272 323 258 265 303 304 345 154 93 246 143 123 125 124 15 220 25 312 293 218 121 176 146 148 151 149 152 151 152 152 155 156 152 152 149 147 146 142 141 139 138 137 139 139 138 139 139 139 141 141 140 138 136 137 136 136 135 134 135 134 132 129 128 129 122 117 123 128 124 122 126 122 121 119 114 108 104 98 97 97 99 100 105 116
90 251 2 198 82 269 144 60 255 185 221 198 277 282 285 283 247 289 295 297 41 360 96 111 135 86 358 319 100 106 1 239 261 114 130 147 146 149 151 151 154 154 156 153 153 149 148 146 148 145 142 142 138 138 141 141 142 141 141 141 143 143 142 142 140 138 138 139 139 137 136 135 130 128 125 128 128 126 126 127 126 125 131 130 125 122 118 112 110 107 104 103 103 103 102 104 112
34 80 255 153 180 58 123 237 287 196 284 254 264 243 268 276 266 257 272 216 322 224 153 150 165 234 160 159 41 37 40 21 176 129 137 148 154 152 154 157 156 156 154 151 150 146 149 146 146 142 143 141 139 142 143 144 143 144 144 145 145 144 143 142 142 140 138 139 142 141 138 132 128 129 130 129 127 125 123 124 128 130 128 126 127 125 120 118 115 112 110 109 108 107 107 110 114
93 304 135 81 60 216 18 213 247 170 252 268 285 285 274 256 248 221 260 310 222 122 75 250 204 136 135 112 165 271 74 61 129 138 147 154 153 153 157 161 157 154 151 151 153 149 145 150 143 143 144 143 143 146 146 145 144 146 147 147 144 142 144 140 141 139 137 137 142 138 130 132 132 131 132 132 129 123 122 126 128 129 133 132 131 127 124 121 118 117 117 117 117 115 115 115 114
134 53 17 188 169 218 228 250 252 274 264 298 285 261 263 274 238 233 213 119 156 133 138 117 102 120 128 98 318 23 12 126 155 147 155 156 158 159 159 160 152 153 154 153 155 151 147 155 148 146 148 146 147 147 147 145 145 149 149 147 144 141 141 137 139 141 136 136 141 135 128 130 133 140 139 132 124 126 128 126 129 131 134 137 135 130 123 121 121 120 120 123 123 121 120 115 110
136 155 173 146 209 229 120 253 276 284 291 290 277 329 34 273 157 216 169 164 139 149 168 214 162 139 109 144 219 46 144 153 140 153 157 154 162 161 158 156 152 156 155 155 155 153 152 154 152 151 152 149 148 148 147 147 149 151 150 148 143 137 136 137 135 139 139 139 139 134 133 137 144 142 133 127 125 125 124 126 127 131 135 137 135 127 123 123 120 121 122 124 127 126 120 113 110
106 150 128 170 115 201 93 278 273 305 307 6 330 347 3 207 224 172 142 132 153 146 153 227 141 181 129 175 19 271 216 182 156 156 158 160 158 160 156 154 156 153 155 156 157 156 151 158 156 156 155 151 148 149 148 150 153 152 149 144 138 133 136 138 135 140 142 140 140 142 145 145 137 133 129 123 121 120 122 124 126 129 134 134 130 123 123 121 118 118 118 119 128 125 117 112 110
148 206 160 194 40 118 201 290 260 294 26 347 233 300 336 327 307 189 129 109 138 313 24 132 142 128 88 132 241 217 211 176 162 156 160 160 155 155 155 154 153 153 156 158 159 158 157 161 159 158 154 156 156 152 153 153 150 146 141 136 133 135 138 140 139 138 140 140 144 148 148 141 136 131 126 119 117 112 118 126 128 127 132 133 127 124 121 119 116 112 112 122 127 121 117 114 112
142 191 98 83 132 174 175 234 11 184 70 326 4 339 347 23 297 288 65 117 82 58 105 63 87 228 129 185 169 212 187 171 164 158 152 154 155 153 152 147 149 155 159 163 161 160 162 164 163 162 161 158 158 159 160 151 143 140 137 137 139 140 141 144 143 140 141 143 145 151 150 146 138 130 126 119 111 112 116 126 128 128 129 132 126 124 122 119 117 112 114 122 124 123 119 115 115
122 141 56 190 162 225 158 231 150 329 53 240 18 330 265 46 32 331 350 302 123 115 283 148 323 328 57 204 31 187 150 161 156 154 153 151 149 150 147 150 160 164 161 164 163 166 163 166 167 167 162 161 158 161 157 156 149 143 138 140 142 144 147 145 143 143 147 148 153 159 157 150 143 135 128 124 118 114 122 126 127 127 130 130 128 125 122 119 116 114 118 123 126 121 118 116 116
127 261 161 89 213 200 165 217 166 158 332 257 333 360 9 22 51 72 13 86 132 138 319 339 329 2 221 7 323 136 131 148 149 153 153 153 151 158 154 160 164 166 164 167 167 167 166 167 170 162 161 159 156 156 155 154 154 151 147 148 152 153 151 151 146 151 155 158 165 161 155 154 147 137 139 136 131 125 120 124 129 128 128 131 127 122 121 120 114 114 120 119 121 119 114 112 112
179 168 130 191 193 206 193 212 195 53 310 329 344 0 308 99 87 111 99 62 65 78 288 325 251 50 10 56 97 119 138 150 155 158 158 157 165 160 163 169 171 167 169 166 168 164 167 168 164 161 160 163 155 151 154 152 153 158 160 162 163 161 162 158 159 163 166 165 161 155 156 152 150 149 141 137 138 130 127 121 127 128 130 128 123 119 116 114 112 116 122 123 121 122 126 125 118
159 106 195 223 182 223 185 170 216 304 314 311 308 325 315 329 156 137 170 126 137 132 314 319 312 89 90 98 124 141 149 152 161 166 165 165 169 169 171 173 175 167 172 171 167 168 170 161 163 165 163 162 163 164 162 163 166 164 165 163 162 169 164 167 163 164 170 162 164 163 154 151 154 150 146 137 140 126 123 121 123 128 129 127 125 117 111 106 105 112 118 124 122 131 140 128 130
162 187 194 224 172 255 226 223 259 216 289 304 323 330 296 308 239 94 227 153 212 183 161 186 212 169 151 129 146 148 153 158 166 169 170 169 175 176 176 177 175 175 173 174 167 163 163 157 160 157 164 163 165 166 162 161 166 169 167 165 168 171 165 168 159 163 161 158 161 156 151 154 149 146 139 131 134 140 129 123 120 125 127 129 131 124 113 103 102 105 113 121 132 147 131 134 131
135 209 215 221 174 247 230 208 242 261 209 286 309 309 328 56 295 232 149 148 196 263 240 199 192 178 160 157 157 159 161 165 171 173 171 170 174 180 179 179 179 174 172 158 146 160 160 148 157 149 155 162 166 169 166 170 170 173 169 168 166 166 169 162 157 158 160 155 159 162 158 158 152 153 151 153 156 149 149 146 145 143 140 135 143 138 138 128 135 134 131 146 146 142 138 130 130
137 226 217 221 125 235 252 248 236 225 165 216 294 315 327 312 181 203 173 219 139 198 207 221 231 165 162 165 166 167 172 175 176 175 177 174 173 173 171 170 166 163 151 150 146 135 154 142 139 155 157 165 170 172 171 168 172 171 170 167 166 168 169 164 165 164 162 160 163 159 154 156 165 162 160 166 161 156 155 157 157 149 146 147 152 149 145 148 142 140 142 145 143 141 135 134 131
212 149 244 237 216 257 311 261 173 170 282 299 302 317 325 358 326 30 314 289 3 354 301 215 215 125 143 158 163 175 182 186 184 182 178 177 177 173 168 171 163 160 165 145 131 143 150 142 142 155 154 171 178 176 171 170 176 175 170 167 168 166 167 168 169 175 167 162 159 166 168 173 171 172 161 170 167 168 163 162 160 154 148 146 148 142 140 144 141 137 137 138 141 139 138 134 137
241 215 141 252 214 236 263 282 256 271 269 266 210 26 287 296 291 99 272 270 318 307 268 158 121 124 148 160 180 187 190 189 187 183 184 184 176 171 163 167 168 158 155 156 130 151 147 146 153 165 167 178 179 178 173 177 179 177 172 168 175 162 168 174 177 176 165 167 168 169 173 176 172 174 172 173 175 177 169 162 164 160 144 131 127 139 145 143 135 131 131 136 143 142 138 141 141
203 233 226 267 239 234 254 265 275 270 258 263 240 253 156 193 238 112 251 317 338 343 135 117 133 140 157 169 182 193 196 194 189 186 184 190 181 154 152 156 173 183 165 162 170 159 164 165 170 176 174 176 178 181 181 183 180 179 177 175 174 165 177 176 176 167 173 171 171 178 175 175 178 176 177 181 178 182 175 172 173 169 159 135 136 133 144 141 136 138 139 144 144 145 144 144 144
201 222 173 251 249 286 279 285 274 271 269 219 244 236 116 201 92 205 266 321 337 128 127 135 147 154 169 182 190 193 198 199 188 183 183 173 171 155 153 162 174 190 189 176 185 187 182 170 180 184 183 181 178 186 189 185 181 182 181 178 176 173 181 179 174 171 173 177 179 182 181 179 177 179 180 179 184 186 186 183 179 175 170 148 146 136 141 146 141 140 145 147 149 149 148 142 147
167 205 212 238 256 334 297 242 270 107 264 213 246 285 77 121 190 199 231 270 180 135 130 143 168 186 188 187 192 200 205 203 194 184 179 171 173 178 169 176 186 192 188 193 194 194 182 187 191 185 184 184 182 189 191 186 185 187 184 179 182 183 182 178 175 177 177 185 185 181 183 181 178 177 180 180 188 185 190 188 189 184 182 168 157 128 139 143 142 147 151 151 153 152 143 145 155
159 176 178 242 262 258 253 275 269 288 276 191 223 283 165 2 171 274 136 165 173 157 150 170 190 205 209 206 196 202 212 209 200 190 185 176 180 185 181 190 192 193 195 199 199 195 187 193 193 193 186 186 183 194 190 186 189 191 181 187 188 185 179 188 185 185 186 193 189 193 189 184 178 178 186 186 189 188 190 193 190 195 194 178 163 142 139 147 151 139 133 139 135 139 135 144 146
165 173 205 216 281 250 196 240 25 202 247 156 171 220 262 89 209 62 131 147 164 166 176 179 204 217 223 228 219 215 216 209 201 201 200 199 194 194 196 198 196 198 206 204 203 202 201 196 193 194 186 191 192 191 191 189 193 189 187 189 192 187 186 190 194 197 197 193 190 193 190 189 182 180 190 191 193 192 187 189 193 199 200 186 159 137 136 147 148 141 132 128 133 131 135 136 138
120 134 240 248 239 250 169 243 202 179 259 162 185 212 42 268 270 12 356 168 159 168 192 201 206 213 220 230 231 231 223 216 215 203 200 193 194 199 203 198 203 207 204 203 201 208 204 208 202 198 194 197 199 196 189 194 194 195 192 195 197 193 202 199 198 202 203 201 196 197 194 189 188 188 190 195 193 192 191 193 195 196 198 190 162 152 164 165 157 151 143 142 137 144 143 144 147
193 138 179 241 197 207 100 359 93 195 78 202 259 222 123 13 16 355 345 233 188 185 201 204 212 214 217 227 234 237 235 229 227 199 184 180 179 183 202 196 202 210 215 206 205 206 205 211 206 207 198 203 198 197 195 194 188 187 189 201 205 204 205 209 208 206 208 207 204 198 197 192 197 193 194 191 193 195 196 196 200 201 195 199 190 174 180 173 172 162 155 141 144 151 151 155 159
50 158 189 121 209 165 332 97 190 193 55 26 249 205 57 36 5 359 3 304 245 290 257 226 224 220 219 230 238 244 253 249 246 220 164 169 173 177 193 200 206 213 222 220 213 208 215 221 217 220 205 207 207 204 204 200 198 192 193 202 210 210 210 209 213 214 211 208 211 206 203 200 197 200 199 195 193 197 200 200 200 200 192 193 192 168 181 183 177 169 155 144 148 152 151 148 155
16 232 118 160 199 185 253 114 20 3 106 58 322 120 169 84 356 10 18 330 279 269 265 252 256 261 256 259 265 265 276 275 280 15 30 23 40 33 32 58 218 254 260 262 244 236 237 233 236 242 226 221 217 223 214 209 205 200 204 207 210 206 214 216 219 215 215 216 214 215 206 205 202 204 202 199 197 199 202 199 196 187 184 184 175 182 192 193 177 161 147 148 142 151 157 150 152
173 342 148 90 194 164 151 4 90 68 201 193 50 98 50 11 1 12 19 7 288 252 279 263 261 261 258 271 280 286 284 301 22 34 30 42 46 59 55 48 47 32 14 331 306 281 296 296 327 6 334 337 335 331 265 225 219 213 215 215 214 216 219 225 225 221 222 220 220 219 217 210 207 206 205 202 202 204 201 195 188 174 182 179 180 181 195 188 182 160 145 146 140 147 162 161 157
161 159 136 153 33 287 87 146 58 204 31 177 98 83 63 31 27 22 19 18 37 289 298 316 281 259 261 273 284 290 288 309 359 11 38 79 94 80 79 78 73 66 49 27 10 15 338 9 351 38 355 33 25 10 347 311 248 232 231 228 220 220 224 229 223 216 219 219 224 222 220 214 213 210 208 205 205 204 197 190 181 179 191 191 187 193 188 181 175 164 142 154 156 169 170 163 155
161 173 164 142 160 160 172 162 12 341 56 62 68 99 61 30 25 21 26 30 39 27 20 357 339 285 269 272 278 285 301 326 350 30 51 64 82 91 93 88 74 73 65 67 67 54 27 62 19 69 111 178 177 165 180 206 221 224 226 225 227 220 220 223 224 218 214 224 227 228 230 221 222 217 207 203 206 203 196 182 167 182 184 190 194 196 191 186 185 179 163 156 148 145 150 151 147
105 90 128 142 143 157 299 281 111 1 90 41 88 84 63 47 32 26 30 43 42 35 32 26 25 19 356 308 292 298 309 325 5 51 43 55 70 82 90 90 92 87 95 112 124 131 140 151 158 169 171 197 200 195 160 177 199 219 225 222 225 224 218 212 214 220 242 255 253 233 230 234 228 219 212 205 207 208 205 172 154 183 189 192 192 192 185 182 186 181 166 159 157 157 154 156 155
141 134 130 139 199 166 161 91 15 46 163 104 92 80 64 56 45 35 37 48 43 39 39 37 37 36 29 21 12 5 343 5 30 37 48 55 69 83 93 95 108 114 130 138 145 149 154 165 171 169 112 81 293 257 205 188 203 227 238 234 235 233 227 222 211 188 206 204 217 228 228 222 232 220 214 209 208 209 206 191 179 184 168 162 149 139 141 168 178 167 153 151 173 159 159 169 161
128 155 148 138 185 297 16 64 351 24 107 127 142 85 70 68 55 49 47 55 51 50 51 49 48 47 42 37 31 30 37 35 36 42 55 56 67 76 85 96 99 117 152 154 155 152 162 165 168 127 135 154 172 195 191 185 184 197 216 243 243 242 242 237 218 195 203 214 219 226 250 245 234 223 212 216 211 208 204 190 192 174 163 167 170 161 161 166 123 136 159 173 172 176 149 177 185
149 125 168 185 112 178 158 47 320 34 191 149 147 98 83 85 68 62 54 54 58 56 56 53 52 47 44 42 39 38 39 46 47 43 48 50 51 63 90 111 143 159 184 175 177 183 172 183 184 148 155 171 175 187 192 193 184 185 190 196 212 224 225 163 311 240 218 190 206 223 232 236 233 225 207 214 213 205 201 195 183 172 177 177 174 171 176 174 167 185 177 167 160 168 169 185 196
299 179 177 152 168 223 160 135 64 56 52 132 134 104 95 33 53 56 54 56 59 55 54 52 49 47 43 43 42 43 43 41 41 41 41 44 50 50 52 58 193 212 239 226 211 199 109 200 274 161 166 176 185 187 194 196 197 201 198 199 198 196 179 184 210 217 204 212 197 207 223 237 243 236 220 212 216 209 199 195 181 182 182 177 174 176 174 179 186 200 194 180 182 183 176 175 186
169 247 201 192 194 176 108 128 163 119 148 235 282 128 60 45 59 55 52 59 57 53 57 51 48 44 42 39 37 39 48 50 49 47 44 44 43 38 29 18 1 342 320 326 359 19 25 12 11 340 315 187 175 188 192 191 202 209 207 210 209 210 210 198 221 221 216 220 216 208 217 228 239 237 228 202 207 212 200 194 191 190 188 183 170 173 169 148 192 202 200 199 196 195 177 172 179
175 197 199 189 160 172 139 129 137 161 165 170 339 241 125 74 62 46 56 64 64 58 56 54 50 48 45 44 38 35 34 35 39 39 37 40 35 35 30 21 2 349 348 352 3 18 17 17 15 11 332 293 228 200 193 191 211 220 218 217 223 218 219 219 222 221 225 236 243 227 222 212 214 229 237 219 205 203 196 192 197 197 189 182 162 162 171 178 183 197 197 212 209 189 175 171 178
192 168 168 149 151 191 201 167 221 114 49 73 55 320 137 147 76 35 76 75 69 63 57 53 52 48 47 44 39 36 34 32 31 30 29 26 30 36 36 27 13 3 353 355 353 357 18 27 21 16 32 8 300 231 207 208 210 214 233 248 255 250 232 237 224 230 235 241 241 248 242 219 209 213 223 227 219 206 197 194 200 197 184 179 176 185 179 175 180 188 178 207 225 203 194 192 180
188 159 162 169 185 205 160 206 171 117 216 152 136 245 122 120 59 49 81 97 68 63 62 55 50 46 43 41 36 33 32 32 31 31 29 27 24 21 21 26 20 13 3 355 356 357 8 18 23 19 12 12 36 232 228 210 215 220 213 213 241 244 242 241 242 242 251 249 244 243 247 225 204 206 219 233 224 227 216 206 202 197 183 158 179 186 189 173 182 197 194 197 208 207 201 185 177
263 115 77 60 60 66 173 197 174 170 202 188 163 299 134 109 27 154 76 75 67 64 61 60 53 47 43 37 32 30 28 25 27 29 28 30 26 23 19 25 24 14 5 9 11 7 4 10 15 15 5 358 355 215 209 230 227 214 220 225 230 238 224 227 244 249 245 247 250 246 242 222 203 202 212 219 204 221 214 208 203 195 180 176 186 181 176 174 187 202 196 202 204 205 192 188 203
113 123 112 96 57 72 69 73 103 157 226 168 32 304 246 139 200 308 73 57 80 80 67 59 50 45 39 35 32 29 24 21 17 14 22 24 21 19 16 21 15 15 11 11 11 10 8 10 8 9 8 358 352 339 229 230 224 225 239 245 245 245 244 234 243 253 248 236 230 239 228 222 201 204 196 187 207 225 231 212 198 180 179 186 181 183 191 192 196 203 202 200 206 205 200 192 205
142 138 138 126 97 125 130 116 162 222 201 68 26 342 263 185 172 158 109 109 72 77 75 63 54 42 38 31 27 24 24 23 23 22 19 20 23 23 20 18 15 16 16 14 12 10 9 10 6 9 12 6 4 350 265 255 245 244 254 265 268 273 266 247 242 253 255 233 213 225 232 229 232 250 230 199 206 224 223 216 187 170 204 194 182 181 197 201 202 198 203 205 208 206 198 202 208
196 138 151 175 168 152 186 170 197 211 196 88 288 279 77 58 100 132 132 105 89 75 68 74 65 53 40 31 26 22 24 22 23 21 17 15 15 16 18 16 13 13 12 10 8 5 5 9 10 10 11 4 6 355 333 332 346 338 313 291 284 272 255 246 259 258 256 253 222 198 182 247 296 249 245 235 212 232 235 217 206 192 201 202 181 185 194 200 201 199 201 201 201 202 204 202 203
173 177 171 177 171 178 176 177 26 53 67 235 310 290 71 110 106 120 115 102 92 88 83 74 73 65 50 40 30 26 24 27 25 26 24 19 16 10 12 15 17 14 12 11 8 8 4 3 6 8 6 3 355 344 337 334 311 272 237 232 229 235 247 259 266 267 258 242 241 220 190 193 208 211 218 213 176 186 194 205 227 218 212 198 186 190 193 197 203 204 207 203 199 205 204 205 214
189 70 185 201 148 161 158 169 173 177 123 80 347 231 142 157 156 117 113 110 100 91 89 84 76 70 62 47 39 35 28 21 22 26 25 20 16 12 10 13 15 16 14 12 12 7 6 7 6 3 1 4 359 353 341 332 320 296 276 268 276 278 278 269 264 253 241 239 238 226 199 202 216 205 203 204 192 197 192 193 195 207 209 209 202 198 194 198 200 206 213 211 203 200 198 204 212
186 153 35 156 193 132 124 106 125 136 135 125 25 46 22 72 113 113 109 108 105 103 95 90 79 71 63 52 42 35 27 21 18 17 17 19 18 15 12 7 7 7 8 12 9 7 5 3 5 7 3 357 357 354 349 341 329 320 315 311 309 293 271 268 267 250 240 232 229 224 221 210 219 225 211 201 196 188 187 201 214 204 192 200 207 208 203 201 200 202 207 206 206 207 203 205 210
179 162 197 164 63 103 103 105 29 57 70 59 7 121 120 115 145 121 121 112 113 109 99 84 75 68 61 53 47 38 28 22 21 22 18 13 12 15 14 9 2 5 9 9 5 2 359 358 1 0 358 359 1 355 349 347 345 339 339 339 331 313 297 287 274 254 243 237 234 228 224 222 223 227 220 200 198 191 183 187 202 211 193 179 197 212 210 206 202 201 203 208 211 209 210 208 204
106 196 173 96 70 34 133 155 79 36 181 99 200 150 152 163 153 151 126 119 114 102 94 89 76 63 57 50 45 38 28 22 18 19 20 19 15 8 7 11 9 7 6 4 5 2 358 357 356 353 351 351 346 345 347 347 347 344 342 344 336 318 286 264 254 253 243 232 221 221 220 215 213 220 225 208 219 215 197 190 198 206 200 187 188 199 213 214 207 203 206 210 211 204 209 201 201
166 162 153 175 151 188 19 111 166 155 126 133 166 163 173 196 143 177 148 134 132 107 102 86 64 54 51 44 39 35 30 24 19 14 14 16 15 13 9 5 7 8 7 7 7 8 0 360 359 355 345 336 329 327 328 338 349 341 339 337 336 318 301 290 286 277 263 249 241 224 215 214 213 217 220 215 215 222 212 209 206 208 202 197 192 190 193 202 209 214 208 212 209 200 204 205 184
42 119 131 338 214 152 157 216 119 140 134 137 147 177 206 205 175 193 161 141 137 120 80 77 69 59 51 40 32 27 24 22 18 17 15 10 8 7 9 8 8 9 10 10 11 7 2 359 352 349 345 344 342 346 348 345 344 345 341 336 333 334 328 322 310 299 278 261 256 244 230 219 214 216 220 214 211 212 212 214 211 207 206 201 193 193 191 196 198 213 206 204 203 202 211 207 198
133 160 146 116 49 339 67 53 30 169 151 174 136 182 219 163 356 215 137 136 132 116 112 95 80 64 53 44 33 25 24 22 21 19 15 11 9 7 9 10 11 15 16 15 14 13 8 359 355 354 348 344 342 337 344 346 340 343 342 342 339 333 338 340 325 297 282 274 269 252 237 226 217 215 217 219 219 216 212 215 214 208 206 202 194 192 194 193 201 213 214 205 199 198 201 206 196
152 157 160 143 134 137 168 159 101 78 143 153 160 180 140 79 358 118 123 113 103 102 104 97 82 70 58 44 37 29 22 22 21 20 18 9 8 6 6 10 15 16 15 14 13 13 11 10 7 2 353 353 346 342 348 348 341 336 340 337 337 341 343 339 329 314 290 277 262 257 248 239 233 226 220 220 224 224 220 215 214 211 207 201 193 192 189 186 193 217 214 205 199 192 198 202 190